TimeCST,TemperatureF,Dew PointF,Humidity,Sea Level PressureIn,VisibilityMPH,Wind Direction,Wind SpeedMPH,Gust SpeedMPH,PrecipitationIn,Events,Conditions,WindDirDegrees,DateUTC
12:12 AM,37.4,32.0,81,29.99,10.0,South,16.1,-,N/A,,Clear,190,1998-01-01 06:12:00
12:33 AM,37.4,32.0,81,30.00,10.0,SSW,13.8,-,N/A,,Clear,200,1998-01-01 06:33:00
12:49 AM,37.4,32.0,81,29.99,10.0,SSW,13.8,-,N/A,,Clear,200,1998-01-01 06:49:00
1:11 AM,37.4,32.0,81,29.98,10.0,SSW,16.1,-,N/A,,Clear,200,1998-01-01 07:11:00
1:49 AM,37.4,32.0,81,29.97,10.0,SSW,13.8,23.0,N/A,,Clear,200,1998-01-01 07:49:00
2:52 AM,37.4,30.2,75,29.96,10.0,South,17.3,23.0,N/A,,Clear,190,1998-01-01 08:52:00
3:09 AM,37.4,30.2,75,29.96,10.0,South,13.8,-,N/A,,Clear,190,1998-01-01 09:09:00
3:31 AM,37.4,30.2,75,29.95,10.0,South,15.0,19.6,N/A,,Clear,190,1998-01-01 09:31:00
3:49 AM,37.4,30.2,75,29.94,10.0,South,17.3,-,N/A,,Clear,190,1998-01-01 09:49:00
4:10 AM,37.4,30.2,75,29.94,10.0,SSW,15.0,18.4,N/A,,Clear,200,1998-01-01 10:10:00
4:29 AM,37.4,30.2,75,29.94,10.0,SSW,17.3,21.9,N/A,,Clear,200,1998-01-01 10:29:00
5:29 AM,37.4,30.2,75,29.93,10.0,SSW,16.1,19.6,N/A,,Clear,200,1998-01-01 11:29:00
5:49 AM,37.4,30.2,75,29.92,10.0,South,16.1,20.7,N/A,,Clear,190,1998-01-01 11:49:00
6:09 AM,37.4,30.2,75,29.93,10.0,SSW,15.0,20.7,N/A,,Clear,200,1998-01-01 12:09:00
6:30 AM,37.4,30.2,75,29.93,10.0,SSW,12.7,19.6,N/A,,Clear,200,1998-01-01 12:30:00
6:49 AM,35.6,30.2,81,29.92,10.0,SSW,13.8,-,N/A,,Clear,200,1998-01-01 12:49:00
7:10 AM,35.6,30.2,81,29.91,10.0,South,16.1,-,N/A,,Clear,190,1998-01-01 13:10:00
7:30 AM,35.6,30.2,81,29.90,10.0,South,17.3,-,N/A,,Clear,180,1998-01-01 13:30:00
7:49 AM,37.4,30.2,75,29.90,10.0,South,15.0,20.7,N/A,,Clear,190,1998-01-01 13:49:00
8:10 AM,37.4,30.2,75,29.91,10.0,SSW,16.1,23.0,N/A,,Clear,200,1998-01-01 14:10:00
9:10 AM,37.4,30.2,75,29.92,10.0,SSW,18.4,23.0,N/A,,Clear,200,1998-01-01 15:10:00
9:29 AM,37.4,30.2,75,29.93,10.0,SSW,18.4,-,N/A,,Clear,200,1998-01-01 15:29:00
10:32 AM,41.0,32.0,70,29.93,10.0,SSW,19.6,25.3,N/A,,Clear,200,1998-01-01 16:32:00
10:49 AM,42.8,33.8,70,29.93,10.0,SSW,17.3,-,N/A,,Clear,210,1998-01-01 16:49:00
11:12 AM,42.8,33.8,70,29.93,10.0,SSW,18.4,23.0,N/A,,Clear,200,1998-01-01 17:12:00
11:49 AM,44.6,33.8,66,29.91,10.0,SSW,17.3,24.2,N/A,,Clear,210,1998-01-01 17:49:00
12:10 PM,44.6,35.6,71,29.90,10.0,SSW,17.3,25.3,N/A,,Clear,200,1998-01-01 18:10:00
12:29 PM,44.6,35.6,71,29.89,10.0,SSW,21.9,-,N/A,,Clear,210,1998-01-01 18:29:00
1:09 PM,46.4,35.6,66,29.89,10.0,SSW,20.7,25.3,N/A,,Clear,210,1998-01-01 19:09:00
1:32 PM,46.4,35.6,66,29.89,10.0,SSW,20.7,25.3,N/A,,Clear,210,1998-01-01 19:32:00
1:49 PM,48.2,37.4,66,29.89,10.0,SSW,18.4,24.2,N/A,,Clear,210,1998-01-01 19:49:00
2:10 PM,48.2,37.4,66,29.89,10.0,SW,17.3,23.0,N/A,,Clear,220,1998-01-01 20:10:00
2:49 PM,48.2,37.4,66,29.89,10.0,SW,13.8,20.7,N/A,,Clear,220,1998-01-01 20:49:00
3:12 PM,48.2,37.4,66,29.89,10.0,SSW,15.0,-,N/A,,Clear,210,1998-01-01 21:12:00
3:30 PM,48.2,37.4,66,29.89,10.0,SSW,17.3,20.7,N/A,,Clear,210,1998-01-01 21:30:00
3:52 PM,48.2,37.4,66,29.89,10.0,SW,16.1,-,N/A,,Clear,220,1998-01-01 21:52:00
4:09 PM,48.2,37.4,66,29.90,10.0,SW,10.4,-,N/A,,Clear,230,1998-01-01 22:09:00
4:52 PM,46.4,37.4,71,29.91,10.0,SSW,10.4,-,N/A,,Clear,210,1998-01-01 22:52:00
5:09 PM,44.6,37.4,76,29.91,10.0,SSW,10.4,-,N/A,,Clear,200,1998-01-01 23:09:00
5:49 PM,42.8,35.6,76,29.92,10.0,SSW,9.2,-,N/A,,Clear,200,1998-01-01 23:49:00
6:08 PM,39.2,33.8,81,29.92,10.0,South,10.4,-,N/A,,Clear,180,1998-01-02 00:08:00
6:35 PM,41.0,35.6,81,29.92,10.0,South,9.2,-,N/A,,Clear,180,1998-01-02 00:35:00
6:48 PM,41.0,35.6,81,29.92,10.0,South,9.2,-,N/A,,Clear,180,1998-01-02 00:48:00
7:11 PM,39.2,35.6,87,29.91,10.0,South,10.4,-,N/A,,Clear,190,1998-01-02 01:11:00
7:28 PM,41.0,35.6,81,29.91,10.0,South,9.2,-,N/A,,Clear,190,1998-01-02 01:28:00
7:50 PM,39.2,35.6,87,29.91,10.0,South,9.2,-,N/A,,Clear,180,1998-01-02 01:50:00
8:08 PM,39.2,33.8,81,29.91,10.0,South,9.2,-,N/A,,Clear,180,1998-01-02 02:08:00
8:30 PM,39.2,35.6,87,29.91,10.0,South,10.4,-,N/A,,Clear,180,1998-01-02 02:30:00
8:48 PM,39.2,35.6,87,29.91,10.0,South,10.4,-,N/A,,Clear,180,1998-01-02 02:48:00
9:15 PM,39.2,35.6,87,29.90,10.0,South,10.4,-,N/A,,Clear,170,1998-01-02 03:15:00
9:28 PM,39.2,35.6,87,29.90,10.0,South,9.2,-,N/A,,Clear,180,1998-01-02 03:28:00
9:50 PM,37.4,33.8,87,29.90,10.0,South,9.2,-,N/A,,Clear,180,1998-01-02 03:50:00
10:08 PM,37.4,33.8,87,29.89,10.0,South,11.5,-,N/A,,Clear,170,1998-01-02 04:08:00
10:30 PM,37.4,33.8,87,29.89,10.0,South,10.4,-,N/A,,Clear,170,1998-01-02 04:30:00
10:53 PM,37.4,33.8,87,29.89,10.0,South,11.5,-,N/A,,Clear,180,1998-01-02 04:53:00
11:10 PM,39.2,33.8,81,29.88,10.0,South,11.5,-,N/A,,Clear,180,1998-01-02 05:10:00
11:28 PM,39.2,33.8,81,29.88,10.0,South,11.5,-,N/A,,Clear,190,1998-01-02 05:28:00
11:50 PM,39.2,33.8,81,29.87,10.0,South,11.5,-,N/A,,Clear,190,1998-01-02 05:50:00